This demonstration page uses our WeatherBlox Daily Observations layout. Learn more.

Hourly Observations for May 25, 2016

Temp ( °F °C ) Dew Point ( °F °C ) Humidity (%) Winds ( mph kmh ) Pressure ( in mb ) Visibility ( mi km ) Precip ( " mm )
12:15 am 00:15 Clear 67 19.5 61 16.3 82 82 ESE 9 15 29.71 1006 10 16.0934 0 0
12:35 am 00:35 Clear 66 19 62 16.5 86 86 SE 3 6 29.71 1006 10 16.0934 0 0
12:55 am 00:55 Clear 66 19.1 62 16.6 86 86 Calm 29.74 1007 10 16.0934 0 0
1:15 am 01:15 Mostly Cloudy with Light Thunderstorms 66 19.1 60 15.5 80 80 NW 13 20 29.77 1008 10 16.0934 0 0
1:35 am 01:35 Mostly Cloudy with Light Rain 62 16.6 57 14 85 85 NNE 10 17 29.74 1007 10 16.0934 0 0
1:55 am 01:55 Mostly Cloudy with Thunderstorms 62 16.7 58 14.2 85 85 N 7 11 29.77 1008 10 16.0934 0 0
2:15 am 02:15 Mostly Cloudy with Light Rain 61 16.3 57 14.1 87 87 ENE 16 26 29.74 1007 10 16.0934 0 0
2:35 am 02:35 Mostly Cloudy with Thunderstorms 61 16 56 13.6 86 86 ESE 7 11 29.74 1007 10 16.0934 0.01 0.254
2:55 am 02:55 Cloudy with Thunderstorms 60 15.6 57 14.1 91 91 WNW 5 7 29.74 1007 5 8.0467 0.1 2.54
3:15 am 03:15 Cloudy 61 16.1 58 14.2 89 89 NW 13 20 29.77 1008 10 16.0934 0.01 0.254
3:35 am 03:35 Cloudy 60 15.7 58 14.4 92 92 E 7 11 29.74 1007 4 6.43736 0.15 3.81
3:55 am 03:55 Cloudy with Heavy Thunderstorms 61 16.2 59 14.9 92 92 ESE 16 26 29.74 1007 7 11.26538 0.25 6.35
4:15 am 04:15 Cloudy with Thunderstorms 61 16.1 59 15 93 93 NNE 3 6 29.77 1008 10 16.0934 0.02 0.508
4:35 am 04:35 Cloudy 61 16 58 14.6 91 91 NNW 10 17 29.83 1010 10 16.0934 0.02 0.508
4:55 am 04:55 Cloudy with Light Rain 60 15.5 57 13.7 89 89 N 9 15 29.83 1010 10 16.0934 0.02 0.508
5:15 am 05:15 Cloudy with Light Rain 60 15.3 56 13.6 90 90 NNW 10 17 29.85 1011 10 16.0934 0.03 0.762
5:35 am 05:35 Cloudy 60 15.6 55 12.9 84 84 NNW 10 17 29.85 1011 10 16.0934 0.03 0.762
5:55 am 05:55 Cloudy 59 15.1 55 12.8 86 86 NNE 6 9 29.85 1011 10 16.0934 0.03 0.762
6:15 am 06:15 Cloudy 60 15.4 55 12.7 84 84 E 8 13 29.85 1011 10 16.0934 0 0
6:35 am 06:35 Cloudy 59 15.1 56 13.1 88 88 E 7 11 29.85 1011 10 16.0934 0 0
6:55 am 06:55 Cloudy 59 15.1 56 13.5 90 90 E 9 15 29.85 1011 10 16.0934 0 0
7:15 am 07:15 Cloudy 59 15.2 57 13.8 91 91 E 12 19 29.85 1011 10 16.0934 0 0
7:35 am 07:35 Cloudy 60 15.6 57 13.7 89 89 E 9 15 29.85 1011 10 16.0934 0 0
7:55 am 07:55 Cloudy 61 16.1 57 13.9 87 87 ESE 12 19 29.85 1011 10 16.0934 0 0
8:15 am 08:15 Cloudy 62 16.8 57 14 84 84 E 12 19 29.83 1010 10 16.0934 0 0
8:35 am 08:35 Partly Cloudy 64 17.7 58 14.5 82 82 ESE 12 19 29.83 1010 10 16.0934 0 0
8:55 am 08:55 Sunny 65 18.5 57 14.1 76 76 ESE 10 17 29.8 1009 10 16.0934 0 0
9:15 am 09:15 Sunny 66 19 58 14.3 74 74 ESE 13 20 29.8 1009 10 16.0934 0 0
9:35 am 09:35 Sunny 67 19.4 57 13.7 70 70 SE 14 22 29.8 1009 10 16.0934 0 0
9:55 am 09:55 Sunny 68 20 56 13.4 66 66 ESE 14 22 29.8 1009 10 16.0934 0 0
10:15 am 10:15 Sunny 69 20.5 55 12.7 61 61 SE 15 24 29.8 1009 10 16.0934 0 0
10:35 am 10:35 Sunny 69 20.8 56 13.6 64 64 SE 17 28 29.77 1008 10 16.0934 0 0
10:55 am 10:55 Sunny 69 20.6 57 13.7 65 65 SSE 17 28 29.8 1009 10 16.0934 0 0
11:15 am 11:15 Sunny 69 20.8 56 13.6 64 64 SE 15 24 29.8 1009 10 16.0934 0 0
11:35 am 11:35 Sunny 70 20.9 58 14.6 67 67 SE 12 19 29.8 1009 10 16.0934 0 0
11:55 am 11:55 Partly Cloudy 70 21.1 59 14.8 67 67 S 13 20 29.8 1009 10 16.0934 0 0
12:15 pm 12:15 Mostly Cloudy 71 21.6 58 14.5 64 64 SSE 10 17 29.8 1009 10 16.0934 0 0
12:35 pm 12:35 Partly Cloudy 72 22 59 14.8 64 64 S 9 15 29.77 1008 10 16.0934 0 0
12:55 pm 12:55 Partly Cloudy 72 22.2 59 15.1 64 64 S 8 13 29.77 1008 10 16.0934 0 0
1:15 pm 13:15 Partly Cloudy 72 22.2 59 15 64 64 S 6 9 29.74 1007 10 16.0934 0 0
1:35 pm 13:35 Mostly Cloudy 73 22.8 61 15.9 65 65 SW 6 9 29.77 1008 10 16.0934 0 0
1:55 pm 13:55 Cloudy 72 22.3 60 15.8 67 67 SW 7 11 29.77 1008 10 16.0934 0 0
2:15 pm 14:15 Mostly Cloudy 73 23 60 15.6 63 63 SSW 3 6 29.77 1008 10 16.0934 0 0
2:35 pm 14:35 Cloudy 73 23 59 15 61 61 SSW 6 9 29.77 1008 10 16.0934 0 0
2:55 pm 14:55 Partly Cloudy 74 23.4 60 15.4 61 61 Calm 29.77 1008 10 16.0934 0 0
3:15 pm 15:15 Hazy 74 23.1 60 15.6 63 63 Calm 29.77 1008 5 8.0467 0 0
3:35 pm 15:35 Mostly Cloudy 75 23.7 59 14.8 58 58 WSW 3 6 29.77 1008 10 16.0934 0 0
3:55 pm 15:55 Cloudy 75 24.1 60 15.4 58 58 SSE 5 7 29.74 1007 10 16.0934 0 0
4:15 pm 16:15 Mostly Cloudy 75 24 59 15.2 58 58 Calm 29.74 1007 10 16.0934 0 0
4:35 pm 16:35 Mostly Cloudy 76 24.3 58 14.2 53 53 Calm 29.74 1007 10 16.0934 0 0
4:55 pm 16:55 Partly Cloudy 77 24.8 59 14.9 54 54 SSW 3 6 29.74 1007 10 16.0934 0 0
5:15 pm 17:15 Sunny 77 24.9 59 15 54 54 SW 3 6 29.74 1007 10 16.0934 0 0
5:35 pm 17:35 Sunny 77 25 58 14.6 53 53 Calm 29.74 1007 10 16.0934 0 0
5:55 pm 17:55 Sunny 77 25 60 15.4 55 55 S 3 6 29.68 1005 10 16.0934 0 0
6:15 pm 18:15 Partly Cloudy 77 24.9 59 14.9 54 54 S 5 7 29.71 1006 10 16.0934 0 0
6:35 pm 18:35 Partly Cloudy 77 25 59 15 54 54 S 6 9 29.68 1005 10 16.0934 0 0
6:55 pm 18:55 Partly Cloudy 76 24.4 60 15.8 59 59 SSE 7 11 29.74 1007 10 16.0934 0 0
7:15 pm 19:15 Sunny 75 23.7 60 15.6 61 61 SSE 6 9 29.71 1006 10 16.0934 0 0
7:35 pm 19:35 Sunny 74 23.1 62 16.4 66 66 SSE 3 6 29.71 1006 10 16.0934 0 0
7:55 pm 19:55 Partly Cloudy 73 23 62 16.7 68 68 SSE 6 9 29.71 1006 10 16.0934 0 0
8:15 pm 20:15 Partly Cloudy 72 22.2 62 16.6 71 71 Calm 29.74 1007 10 16.0934 0 0
8:35 pm 20:35 Partly Cloudy 72 22 62 16.6 72 72 S 6 9 29.74 1007 10 16.0934 0 0
8:55 pm 20:55 Sunny 69 20.8 62 16.9 78 78 Calm 29.8 1009 10 16.0934 0 0
9:15 pm 21:15 Clear 69 20.6 63 17 80 80 Calm 29.8 1009 10 16.0934 0 0
9:35 pm 21:35 Partly Cloudy with Nearby Thunderstorms 68 20 60 15.3 74 74 NW 31 50 29.88 1012 10 16.0934 0 0
9:55 pm 21:55 Mostly Cloudy with Thunderstorms 55 13 52 11.3 90 90 NNW 25 41 29.91 1013 3 4.82802 0.2 5.08
10:15 pm 22:15 Partly Cloudy 59 15 53 11.5 80 80 N 36 57 29.88 1012 10 16.0934 0.01 0.254
10:35 pm 22:35 Mostly Cloudy 60 15.8 53 11.4 75 75 N 18 30 29.88 1012 10 16.0934 0.01 0.254
10:55 pm 22:55 Cloudy with Light Rain 61 16 52 10.9 72 72 N 13 20 29.88 1012 10 16.0934 0.01 0.254
11:15 pm 23:15 Mostly Cloudy 60 15.8 51 10.8 72 72 N 12 19 29.85 1011 10 16.0934 0 0
11:35 pm 23:35 Partly Cloudy 61 16.2 51 10.7 70 70 NW 8 13 29.88 1012 10 16.0934 0 0
11:55 pm 23:55 Mostly Cloudy with Light Rain 61 15.9 52 11.2 74 74 WSW 17 28 29.97 1015 10 16.0934 0 0

Powered by AerisWeather